H1 CPF 2 NER 2023 11 5 9 309 01 glonass142 H2 2001801 9142 45358 2023 11 5 0 0 0 2023 11 8 23 45 0 900 1 1 0 0 0 1 H9 10 0 60253 0.00000 0 -5648441.242 20997570.170 13340798.279 10 0 60253 900.00000 0 -6267808.607 22341995.657 10590645.532 10 0 60253 1800.00000 0 -6633481.571 23412656.210 7634742.040 10 0 60253 2700.00000 0 -6778976.448 24161991.692 4530452.298 10 0 60253 3600.00000 0 -6746749.508 24552300.818 1338076.644 10 0 60253 4500.00000 0 -6586156.508 24557367.166 -1880321.649 10 0 60253 5400.00000 0 -6351122.100 24163623.254 -5062127.895 10 0 60253 6300.00000 0 -6097618.368 23370802.080 -8145401.915 10 0 60253 7200.00000 0 -5881060.224 22192047.148 -11070093.481 10 0 60253 8100.00000 0 -5753729.247 20653475.028 -13779222.520 10 0 60253 9000.00000 0 -5762336.543 18793207.790 -16219999.919 10 0 60253 9900.00000 0 -5945829.376 16659915.318 -18344865.979 10 0 60253 10800.00000 0 -6333535.947 14310928.423 -20112425.362 10 0 60253 11700.00000 0 -6943728.182 11810001.848 -21488259.668 10 0 60253 12600.00000 0 -7782664.498 9224821.152 -22445601.371 10 0 60253 13500.00000 0 -8844153.909 6624358.105 -22965855.857 10 0 60253 14400.00000 0 -10109660.584 4076185.403 -23038961.526 10 0 60253 15300.00000 0 -11548944.873 1643863.039 -22663581.225 10 0 60253 16200.00000 0 -13121214.038 -615494.724 -21847121.721 10 0 60253 17100.00000 0 -14776734.293 -2653370.763 -20605581.381 10 0 60253 18000.00000 0 -16458836.279 -4431625.927 -18963229.540 10 0 60253 18900.00000 0 -18106229.428 -5923836.262 -16952124.426 10 0 60253 19800.00000 0 -19655527.822 -7116132.430 -14611479.529 10 0 60253 20700.00000 0 -21043881.152 -8007508.169 -11986891.386 10 0 60253 21600.00000 0 -22211600.165 -8609587.119 -9129444.328 10 0 60253 22500.00000 0 -23104666.293 -8945860.100 -6094710.173 10 0 60253 23400.00000 0 -23677020.183 -9050427.169 -2941662.870 10 0 60253 24300.00000 0 -23892533.315 -8966299.487 268470.316 10 0 60253 25200.00000 0 -23726580.403 -8743334.349 3473398.389 10 0 60253 26100.00000 0 -23167147.139 -8435891.855 6610973.598 10 0 60253 27000.00000 0 -22215427.488 -8100313.041 9620392.339 10 0 60253 27900.00000 0 -20885886.105 -7792326.411 12443366.916 10 0 60253 28800.00000 0 -19205783.754 -7564492.339 15025245.879 10 0 60253 29700.00000 0 -17214185.860 -7463792.883 17316061.985 10 0 60253 30600.00000 0 -14960495.531 -7529468.048 19271488.477 10 0 60253 31500.00000 0 -12502571.845 -7791189.079 20853686.252 10 0 60253 32400.00000 0 -9904510.952 -8267645.092 22032026.709 10 0 60253 33300.00000 0 -7234181.124 -8965602.228 22783677.432 10 0 60253 34200.00000 0 -4560612.697 -9879474.911 23094040.222 10 0 60253 35100.00000 0 -1951349.642 -10991427.770 22957033.684 10 0 60253 36000.00000 0 530129.084 -12272004.969 22375215.058 10 0 60253 36900.00000 0 2826813.013 -13681261.997 21359738.754 10 0 60253 37800.00000 0 4890290.121 -15170354.239 19930151.697 10 0 60253 38700.00000 0 6682515.962 -16683517.674 18114028.435 10 0 60253 39600.00000 0 8177149.127 -18160360.492 15946451.728 10 0 60253 40500.00000 0 9360397.859 -19538371.146 13469347.235 10 0 60253 41400.00000 0 10231342.640 -20755538.792 10730683.724 10 0 60253 42300.00000 0 10801721.175 -21752976.689 7783553.013 10 0 60253 43200.00000 0 11095184.608 -22477438.350 4685146.526 10 0 60253 44100.00000 0 11146056.111 -22883620.054 1495647.659 10 0 60253 45000.00000 0 10997644.083 -22936151.703 -1722938.630 10 0 60253 45900.00000 0 10700181.324 -22611190.689 -4907996.025 10 0 60253 46800.00000 0 10308477.773 -21897549.932 -7997522.660 10 0 60253 47700.00000 0 9879386.854 -20797310.743 -10931347.689 10 0 60253 48600.00000 0 9469193.750 -19325893.080 -13652313.805 10 0 60253 49500.00000 0 9131037.417 -17511578.742 -16107401.524 10 0 60253 50400.00000 0 8912476.897 -15394506.489 -18248772.179 10 0 60253 51300.00000 0 8853306.260 -13025180.533 -20034708.395 10 0 60253 52200.00000 0 8983711.890 -10462554.564 -21430433.035 10 0 60253 53100.00000 0 9322851.084 -7771771.500 -22408790.231 10 0 60253 54000.00000 0 9877912.815 -5021653.594 -22950775.111 10 0 60253 54900.00000 0 10643700.871 -2282047.944 -23045902.004 10 0 60253 55800.00000 0 11602757.207 378861.654 -22692404.236 10 0 60253 56700.00000 0 12726020.345 2897164.421 -21897262.078 10 0 60253 57600.00000 0 13973990.932 5215645.381 -20676058.789 10 0 60253 58500.00000 0 15298355.033 7285920.841 -19052668.141 10 0 60253 59400.00000 0 16643996.429 9070198.482 -17058780.042 10 0 60253 60300.00000 0 17951312.766 10542590.056 -14733274.082 10 0 60253 61200.00000 0 19158737.660 11689923.549 -12121453.764 10 0 60253 62100.00000 0 20205362.253 12512022.898 -9274156.879 10 0 60253 63000.00000 0 21033545.654 13021445.776 -6246759.898 10 0 60253 63900.00000 0 21591404.333 13242692.722 -3098096.290 10 0 60253 64800.00000 0 21835075.791 13210923.078 110689.690 10 0 60253 65700.00000 0 21730661.542 12970233.730 3317331.135 10 0 60253 66600.00000 0 21255768.079 12571574.811 6459645.144 10 0 60253 67500.00000 0 20400581.544 12070391.453 9476734.564 10 0 60253 68400.00000 0 19168431.430 11524091.725 12310161.720 10 0 60253 69300.00000 0 17575820.042 10989447.808 14905071.782 10 0 60253 70200.00000 0 15651916.639 10520039.789 17211244.758 10 0 60253 71100.00000 0 13437537.258 10163849.217 19184056.702 10 0 60253 72000.00000 0 10983652.370 9961103.059 20785332.600 10 0 60253 72900.00000 0 8349483.672 9942457.953 21984075.639 10 0 60253 73800.00000 0 5600268.007 10127600.438 22757059.836 10 0 60253 74700.00000 0 2804779.815 10524321.537 23089275.502 10 0 60253 75600.00000 0 32713.232 11128104.556 22974219.542 10 0 60253 76500.00000 0 -2647969.408 11922243.797 22414025.231 10 0 60253 77400.00000 0 -5173614.439 12878490.140 21419428.747 10 0 60253 78300.00000 0 -7487273.829 13958197.666 20009572.481 10 0 60253 79200.00000 0 -9540824.042 15113924.816 18211647.900 10 0 60253 80100.00000 0 -11296719.690 16291424.511 16060383.591 10 0 60253 81000.00000 0 -12729309.569 17431941.244 13597386.907 10 0 60253 81900.00000 0 -13825660.424 18474719.877 10870350.522 10 0 60253 82800.00000 0 -14585853.966 19359621.451 7932137.954 10 0 60253 83700.00000 0 -15022744.486 20029736.182 4839764.780 10 0 60253 84600.00000 0 -15161186.971 20433883.234 1653294.665 10 0 60253 85500.00000 0 -15036768.002 20528891.008 -1565328.523 10 0 60254 0.00000 0 -14694092.970 20281560.429 -4753489.281 10 0 60254 900.00000 0 -14184701.905 19670226.530 -7849127.267 10 0 60254 1800.00000 0 -13564703.098 18685850.955 -10791953.238 10 0 60254 2700.00000 0 -12892224.764 17332597.023 -13524634.993 10 0 60254 3600.00000 0 -12224794.057 15627861.599 -15993924.809 10 0 60254 4500.00000 0 -11616755.361 13601760.879 -18151706.934 10 0 60254 5400.00000 0 -11116838.316 11296090.579 -19955943.571 10 0 60254 6300.00000 0 -10765979.511 8762803.315 -21371500.182 10 0 60254 7200.00000 0 -10595490.864 6062066.595 -22370833.614 10 0 60254 8100.00000 0 -10625652.714 3259982.456 -22934529.496 10 0 60254 9000.00000 0 -10864791.411 426064.024 -23051678.533 10 0 60254 9900.00000 0 -11308880.386 -2369425.601 -22720084.640 10 0 60254 10800.00000 0 -11941681.352 -5058161.159 -21946301.328 10 0 60254 11700.00000 0 -12735419.253 -7576357.910 -20745496.104 10 0 60254 12600.00000 0 -13651961.941 -9867181.089 -19141146.119 10 0 60254 13500.00000 0 -14644454.162 -11882862.468 -17164571.532 10 0 60254 14400.00000 0 -15659336.311 -13586436.845 -14854316.256 10 0 60254 15300.00000 0 -16638662.129 -14953027.398 -12255388.693 10 0 60254 16200.00000 0 -17522617.084 -15970627.951 -9418377.809 10 0 60254 17100.00000 0 -18252130.769 -16640351.445 -6398462.279 10 0 60254 18000.00000 0 -18771472.878 -16976136.337 -3254332.541 10 0 60254 18900.00000 0 -19030723.190 -17003925.431 -47047.205 10 0 60254 19800.00000 0 -18988011.528 -16760353.697 3161153.598 10 0 60254 20700.00000 0 -18611433.536 -16291002.089 6308054.540 10 0 60254 21600.00000 0 -17880561.941 -15648292.289 9332667.666 10 0 60254 22500.00000 0 -16787490.079 -14889112.019 12176408.040 10 0 60254 23400.00000 0 -15337364.143 -14072271.441 14784220.098 10 0 60254 24300.00000 0 -13548381.903 -13255897.733 17105633.594 10 0 60254 25200.00000 0 -11451257.811 -12494877.086 19095729.665 10 0 60254 26100.00000 0 -9088176.335 -11838450.970 20715999.378 10 0 60254 27000.00000 0 -6511276.329 -11328066.764 21935079.335 10 0 60254 27900.00000 0 -3780728.289 -10995572.085 22729351.248 10 0 60254 28800.00000 0 -962482.895 -10861827.775 23083394.782 10 0 60254 29700.00000 0 1874217.460 -10935797.221 22990285.606 10 0 60254 30600.00000 0 4659462.868 -11214150.051 22451733.097 10 0 60254 31500.00000 0 7325328.857 -11681397.159 21478054.913 10 0 60254 32400.00000 0 9808449.824 -12310552.079 20087988.260 10 0 60254 33300.00000 0 12052407.661 -13064292.121 18308340.542 10 0 60254 34200.00000 0 14009837.394 -13896571.752 16173484.824 10 0 60254 35100.00000 0 15644162.986 -14754621.845 13724708.441 10 0 60254 36000.00000 0 16930891.253 -15581251.900 11009425.880 10 0 60254 36900.00000 0 17858409.803 -16317359.218 8080269.882 10 0 60254 37800.00000 0 18428255.347 -16904539.742 4994077.367 10 0 60254 38700.00000 0 18654840.720 -17287690.352 1810789.160 10 0 60254 39600.00000 0 18564651.709 -17417492.116 -1407715.259 10 0 60254 40500.00000 0 18194947.237 -17252668.445 -4598825.133 10 0 60254 41400.00000 0 17592017.728 -16761921.196 -7700423.856 10 0 60254 42300.00000 0 16809075.412 -15925461.052 -10652107.591 10 0 60254 43200.00000 0 15903866.294 -14736065.609 -13396372.277 10 0 60254 44100.00000 0 14936105.517 -13199618.546 -15879744.717 10 0 60254 45000.00000 0 13964845.538 -11335105.403 -18053834.551 10 0 60254 45900.00000 0 13045889.408 -9174064.649 -19876285.678 10 0 60254 46800.00000 0 12229359.420 -6759515.905 -21311607.899 10 0 60254 47700.00000 0 11557524.659 -4144409.495 -22331872.090 10 0 60254 48600.00000 0 11062979.718 -1389661.750 -22917255.245 10 0 60254 49500.00000 0 10767251.654 1438142.053 -23056424.836 10 0 60254 50400.00000 0 10679893.879 4269281.242 -22746755.305 10 0 60254 51300.00000 0 10798104.783 7033564.147 -21994372.879 10 0 60254 52200.00000 0 11106886.504 9663012.389 -20814028.374 10 0 60254 53100.00000 0 11579736.281 12094453.369 -19228800.985 10 0 60254 54000.00000 0 12179840.254 14271913.433 -17269639.421 10 0 60254 54900.00000 0 12861718.323 16148712.683 -14974749.863 10 0 60254 55800.00000 0 13573249.667 17689175.109 -12388843.235 10 0 60254 56700.00000 0 14257992.526 18869884.033 -9562256.997 10 0 60254 57600.00000 0 14857699.585 19680432.066 -6549969.091 10 0 60254 58500.00000 0 15314922.147 20123636.087 -3410523.780 10 0 60254 59400.00000 0 15575592.847 20215210.235 -204890.768 10 0 60254 60300.00000 0 15591477.691 19982912.656 3004719.865 10 0 60254 61200.00000 0 15322394.038 19465203.674 6156063.562 10 0 60254 62100.00000 0 14738101.183 18709473.375 9188064.576 10 0 60254 63000.00000 0 13819784.141 17769914.281 12041993.476 10 0 60254 63900.00000 0 12561068.455 16705129.312 14662596.421 10 0 60254 64800.00000 0 10968523.466 15575575.807 16999155.049 10 0 60254 65700.00000 0 9061632.799 14440952.768 19006457.388 10 0 60254 66600.00000 0 6872232.848 13357640.386 20645662.056 10 0 60254 67500.00000 0 4443441.867 12376298.368 21885040.219 10 0 60254 68400.00000 0 1828123.099 11539722.665 22700582.084 10 0 60254 69300.00000 0 -913055.615 10881049.339 23076457.126 10 0 60254 70200.00000 0 -3713886.979 10422379.893 23005319.831 10 0 60254 71100.00000 0 -6505122.059 10173884.977 22488455.325 10 0 60254 72000.00000 0 -9217099.132 10133423.782 21535761.940 10 0 60254 72900.00000 0 -11782396.410 10286695.229 20165570.437 10 0 60254 73800.00000 0 -14138400.172 10607915.167 18404302.441 10 0 60254 74700.00000 0 -16229682.863 11060992.024 16285973.371 10 0 60254 75600.00000 0 -18010093.111 11601152.568 13851548.081 10 0 60254 76500.00000 0 -19444470.957 12176950.419 11148160.147 10 0 60254 77400.00000 0 -20509916.684 12732573.605 8228208.662 10 0 60254 78300.00000 0 -21196559.836 13210354.391 5148348.945 10 0 60254 79200.00000 0 -21507795.664 13553375.518 1968396.064 10 0 60254 80100.00000 0 -21459978.453 13708062.325 -1249837.741 10 0 60254 81000.00000 0 -21081584.113 13626650.204 -4443748.942 10 0 60254 81900.00000 0 -20411876.992 13269421.636 -7551167.870 10 0 60254 82800.00000 0 -19499137.073 12606616.453 -10511578.304 10 0 60254 83700.00000 0 -18398522.662 11619932.602 -13267306.644 10 0 60254 84600.00000 0 -17169659.331 10303551.985 -15764656.329 10 0 60254 85500.00000 0 -15874057.729 8664646.155 -17954964.234 10 0 60255 0.00000 0 -14572470.244 6723339.006 -19795557.362 10 0 60255 900.00000 0 -13322298.282 4512125.457 -21250591.402 10 0 60255 1800.00000 0 -12175162.004 2074772.103 -22291751.954 10 0 60255 2700.00000 0 -11174733.164 -535258.334 -22898807.898 10 0 60255 3600.00000 0 -10354924.311 -3256790.774 -23060003.649 10 0 60255 4500.00000 0 -9738509.785 -6023248.089 -22772283.991 10 0 60255 5400.00000 0 -9336236.156 -8765191.429 -22041347.349 10 0 60255 6300.00000 0 -9146458.748 -11412984.707 -20881526.978 10 0 60255 7200.00000 0 -9155318.415 -13899472.201 -19315502.921 10 0 60255 8100.00000 0 -9337449.857 -16162557.915 -17373850.945 10 0 60255 9000.00000 0 -9657190.214 -18147579.633 -15094437.745 10 0 60255 9900.00000 0 -10070235.597 -19809379.293 -12521674.811 10 0 60255 10800.00000 0 -10525674.344 -21113984.310 -9705645.989 10 0 60255 11700.00000 0 -10968310.029 -22039830.858 -6701126.285 10 0 60255 12600.00000 0 -11341175.165 -22578479.499 -3566511.529 10 0 60255 13500.00000 0 -11588128.740 -22734794.928 -362680.223 10 0 60255 14400.00000 0 -11656427.421 -22526584.098 2848189.926 10 0 60255 15300.00000 0 -11499161.650 -21983709.676 6003827.496 10 0 60255 16200.00000 0 -11077453.836 -21146717.613 9043071.344 10 0 60255 17100.00000 0 -10362326.095 -20065037.757 11907049.952 10 0 60255 18000.00000 0 -9336159.018 -18794833.924 14540313.602 10 0 60255 18900.00000 0 -7993680.271 -17396594.097 16891898.145 10 0 60255 19800.00000 0 -6342441.401 -15932561.781 18916300.696 10 0 60255 20700.00000 0 -4402762.520 -14464115.691 20574349.426 10 0 60255 21600.00000 0 -2207146.473 -13049206.633 21833951.817 10 0 60255 22500.00000 0 200814.186 -11739957.741 22670708.025 10 0 60255 23400.00000 0 2767993.310 -10580527.193 23068378.456 10 0 60255 24300.00000 0 5433687.431 -9605321.567 23019197.203 10 0 60255 25200.00000 0 8131892.902 -8837633.503 22524025.591 10 0 60255 26100.00000 0 10793811.384 -8288759.917 21592342.732 10 0 60255 27000.00000 0 13350481.675 -7957637.299 20242072.711 10 0 60255 27900.00000 0 15735430.377 -7831009.423 18499250.794 10 0 60255 28800.00000 0 17887232.636 -7884120.804 16397533.817 10 0 60255 29700.00000 0 19751877.413 -8081907.479 13977562.815 10 0 60255 30600.00000 0 21284839.238 -8380635.776 11286188.718 10 0 60255 31500.00000 0 22452769.978 -8729920.855 8375574.796 10 0 60255 32400.00000 0 23234739.524 -9075040.403 5302192.186 10 0 60255 33300.00000 0 23622972.758 -9359446.000 2125727.232 10 0 60255 34200.00000 0 23623051.057 -9527365.762 -1092078.321 10 0 60255 35100.00000 0 23253569.079 -9526387.427 -4288631.616 10 0 60255 36000.00000 0 22545260.625 -9309911.388 -7401713.422 10 0 60255 36900.00000 0 21539629.997 -8839368.246 -10370698.562 10 0 60255 37800.00000 0 20287146.481 -8086105.203 -13137747.149 10 0 60255 38700.00000 0 18845078.314 -7032859.508 -15648942.260 10 0 60255 39600.00000 0 17275058.001 -5674754.714 -17855350.698 10 0 60255 40500.00000 0 15640482.316 -4019775.834 -19713985.218 10 0 60255 41400.00000 0 14003857.312 -2088701.717 -21188648.734 10 0 60255 42300.00000 0 12424200.857 85503.845 -22250643.542 10 0 60255 43200.00000 0 10954612.546 2458817.744 -22879331.624 10 0 60255 44100.00000 0 9640113.406 4977753.468 -23062535.122 10 0 60255 45000.00000 0 8515846.114 7581360.886 -22796769.506 10 0 60255 45900.00000 0 7605710.856 10203546.552 -22087305.291 10 0 60255 46800.00000 0 6921493.231 12775617.717 -20948057.607 10 0 60255 47700.00000 0 6462519.659 15228943.873 -19401306.346 10 0 60255 48600.00000 0 6215853.269 17497624.889 -17477252.886 10 0 60255 49500.00000 0 6157020.329 19521054.617 -15213422.586 10 0 60255 50400.00000 0 6251234.939 21246273.333 -12653925.234 10 0 60255 51300.00000 0 6455068.630 22630011.451 -9848588.442 10 0 60255 52200.00000 0 6718492.895 23640339.978 -6851981.321 10 0 60255 53100.00000 0 6987207.081 24257859.847 -3722348.052 10 0 60255 54000.00000 0 7205152.253 24476381.730 -520472.539 10 0 60255 54900.00000 0 7317104.043 24303069.369 2691503.368 10 0 60255 55800.00000 0 7271234.508 23758041.975 5851284.817 10 0 60255 56700.00000 0 7021534.585 22873453.865 8897628.582 10 0 60255 57600.00000 0 6529994.949 21692091.184 11771524.145 10 0 60255 58500.00000 0 5768453.452 20265545.520 14417328.708 10 0 60255 59400.00000 0 4720031.508 18652041.515 16783834.801 10 0 60255 60300.00000 0 3380099.059 16914009.511 18825250.752 10 0 60255 61200.00000 0 1756727.426 15115504.495 20502076.050 10 0 60255 62100.00000 0 -129389.449 13319578.468 21781855.889 10 0 60255 63000.00000 0 -2245543.007 11585714.894 22639801.395 10 0 60255 63900.00000 0 -4548123.233 9967431.051 23059264.537 10 0 60255 64800.00000 0 -6984192.268 8510146.959 23032059.215 10 0 60255 65700.00000 0 -9493454.921 7249408.480 22558622.697 10 0 60255 66600.00000 0 -12010546.200 6209537.701 21648014.138 10 0 60255 67500.00000 0 -14467542.860 5402766.137 20317749.716 10 0 60255 68400.00000 0 -16796596.453 4828886.597 18593476.601 10 0 60255 69300.00000 0 -18932579.956 4475438.214 16508490.848 10 0 60255 70200.00000 0 -20815638.905 4318417.137 14103107.068 10 0 60255 71100.00000 0 -22393541.390 4323483.528 11423890.614 10 0 60255 72000.00000 0 -23623728.846 4447614.592 8522765.791 10 0 60255 72900.00000 0 -24474981.574 4641134.468 5456016.290 10 0 60255 73800.00000 0 -24928628.468 4850035.534 2283196.467 10 0 60255 74700.00000 0 -24979249.201 5018492.883 -934025.633 10 0 60255 75600.00000 0 -24634838.321 5091465.081 -4133070.900 10 0 60255 76500.00000 0 -23916423.346 5017270.108 -7251673.462 10 0 60255 77400.00000 0 -22857152.175 4750026.021 -10229101.919 10 0 60255 78300.00000 0 -21500887.767 4251851.310 -13007352.612 10 0 60255 79200.00000 0 -19900369.150 3494729.890 -15532290.512 10 0 60255 80100.00000 0 -18115016.450 2461959.950 -17754714.301 10 0 60255 81000.00000 0 -16208472.780 1149123.518 -19631323.918 10 0 60255 81900.00000 0 -14245987.037 -435465.867 -21125570.989 10 0 60255 82800.00000 0 -12291748.285 -2270857.693 -22208375.044 10 0 60255 83700.00000 0 -10406284.229 -4324098.448 -22858691.404 10 0 60255 84600.00000 0 -8644033.278 -6551379.247 -23063919.742 10 0 60255 85500.00000 0 -7051192.041 -8899649.590 -22820145.591 10 0 60256 0.00000 0 -5663928.234 -11308629.728 -22132210.628 10 0 60256 900.00000 0 -4507032.373 -13713138.956 -21013610.400 10 0 60256 1800.00000 0 -3593065.432 -16045639.208 -19486223.062 10 0 60256 2700.00000 0 -2922034.181 -18238891.992 -17579873.751 10 0 60256 3600.00000 0 -2481607.903 -20228614.463 -15331744.445 10 0 60256 4500.00000 0 -2247864.678 -21956025.062 -12785641.088 10 0 60256 5400.00000 0 -2186533.918 -23370172.427 -9991132.826 10 0 60256 6300.00000 0 -2254680.901 -24429950.731 -7002580.639 10 0 60256 7200.00000 0 -2402760.545 -25105717.872 -3878074.831 10 0 60256 8100.00000 0 -2576952.255 -25380449.774 -678302.524 10 0 60256 9000.00000 0 -2721676.123 -25250383.623 2534632.435 10 0 60256 9900.00000 0 -2782183.402 -24725124.359 5698413.887 10 0 60256 10800.00000 0 -2707111.397 -23827211.231 8751718.610 10 0 60256 11700.00000 0 -2450894.749 -22591163.752 11635399.160 10 0 60256 12600.00000 0 -1975931.466 -21062047.933 14293621.688 10 0 60256 13500.00000 0 -1254412.581 -19293623.436 16674937.369 10 0 60256 14400.00000 0 -269738.605 -17346149.302 18733267.585 10 0 60256 15300.00000 0 982536.763 -15283939.735 20428784.833 10 0 60256 16200.00000 0 2494275.501 -13172771.281 21728673.496 10 0 60256 17100.00000 0 4244855.425 -11077248.486 22607756.907 10 0 60256 18000.00000 0 6201798.453 -9058236.529 23048979.560 10 0 60256 18900.00000 0 8321902.217 -7170466.270 23043735.859 10 0 60256 19800.00000 0 10552829.602 -5460409.976 22592039.423 10 0 60256 20700.00000 0 12835091.987 -3964514.877 21702529.584 10 0 60256 21600.00000 0 15104345.691 -2707867.056 20392314.466 10 0 60256 22500.00000 0 17293908.013 -1703340.613 18686652.723 10 0 60256 23400.00000 0 19337389.764 -951267.258 16618478.901 10 0 60256 24300.00000 0 21171335.911 -439640.030 14227780.140 10 0 60256 25200.00000 0 22737764.973 -144842.779 11560834.815 10 0 60256 26100.00000 0 23986501.299 -32875.101 8669326.486 10 0 60256 27000.00000 0 24877202.399 -61021.488 5609349.232 10 0 60256 27900.00000 0 25380995.623 -179894.553 2440322.884 10 0 60256 28800.00000 0 25481654.407 -335765.962 -776161.073 10 0 60256 29700.00000 0 25176263.427 -473086.149 -3977540.371 10 0 60256 30600.00000 0 24475343.372 -537085.367 -7101505.717 10 0 60256 31500.00000 0 23402428.955 -476344.762 -10087222.720 10 0 60256 32400.00000 0 21993117.029 -245227.060 -12876527.080 10 0 60256 33300.00000 0 20293624.323 193937.767 -15415068.600 10 0 60256 34200.00000 0 18358915.309 869006.205 -17653380.529 10 0 60256 35100.00000 0 16250479.069 1796594.172 -19547852.417 10 0 60256 36000.00000 0 14033848.933 2981131.231 -21061586.742 10 0 60256 36900.00000 0 11775969.565 4414437.428 -22165122.113 10 0 60256 37800.00000 0 9542522.389 6075841.794 -22837008.743 10 0 60256 38700.00000 0 7395321.795 7932838.472 -23064225.043 10 0 60256 39600.00000 0 5389891.265 9942253.500 -22842427.453 10 0 60256 40500.00000 0 3573320.601 12051873.694 -22176029.087 10 0 60256 41400.00000 0 1982493.240 14202469.490 -21078106.143 10 0 60256 42300.00000 0 642756.796 16330127.018 -19570134.474 10 0 60256 43200.00000 0 -432909.011 18368791.669 -17681562.008 10 0 60256 44100.00000 0 -1244193.989 20252916.627 -15449225.902 10 0 60256 45000.00000 0 -1803218.044 21920105.425 -12916626.342 10 0 60256 45900.00000 0 -2133762.942 23313637.982 -10133071.674 10 0 60256 46800.00000 0 -2270009.742 24384774.600 -7152712.025 10 0 60256 47700.00000 0 -2254837.105 25094741.804 -4033480.779 10 0 60256 48600.00000 0 -2137754.053 25416317.488 -835964.989 10 0 60256 49500.00000 0 -1972555.885 25334949.756 2377772.937 10 0 60256 50400.00000 0 -1814803.326 24849363.490 5545399.021 10 0 60256 51300.00000 0 -1719232.107 23971630.286 8605513.490 10 0 60256 52200.00000 0 -1737202.663 22726699.747 11498835.278 10 0 60256 53100.00000 0 -1914297.641 21151412.616 14169342.590 10 0 60256 54000.00000 0 -2288168.336 19293037.559 16565348.088 10 0 60256 54900.00000 0 -2886720.482 17207392.946 18640488.757 10 0 60256 55800.00000 0 -3726715.505 14956631.871 20354612.317 10 0 60256 56700.00000 0 -4812845.962 12606782.133 21674544.211 10 0 60256 57600.00000 0 -6137324.199 10225142.644 22574721.478 10 0 60256 58500.00000 0 -7680002.133 7877643.332 23037682.224 10 0 60256 59400.00000 0 -9409018.218 5626276.799 23054402.000 10 0 60256 60300.00000 0 -11281946.070 3526706.928 22624470.933 10 0 60256 61200.00000 0 -13247398.555 1626152.369 21756108.176 10 0 60256 62100.00000 0 -15247022.431 -38368.409 20466012.886 10 0 60256 63000.00000 0 -17217802.317 -1441358.482 18779053.739 10 0 60256 63900.00000 0 -19094579.661 -2569675.865 16727801.773 10 0 60256 64800.00000 0 -20812683.059 -3422844.511 14351914.176 10 0 60256 65700.00000 0 -22310561.037 -4012830.002 11697379.439 10 0 60256 66600.00000 0 -23532307.618 -4363289.162 8815637.153 10 0 60256 67500.00000 0 -24429974.772 -4508324.945 5762588.354 10 0 60256 68400.00000 0 -24965574.147 -4490798.792 2597514.797 10 0 60256 69300.00000 0 -25112682.891 -4360271.661 -618072.150 10 0 60256 70200.00000 0 -24857584.694 -4170660.966 -3821630.544 10 0 60256 71100.00000 0 -24199896.527 -3977713.131 -6950811.038 10 0 60256 72000.00000 0 -23152653.204 -3836399.718 -9944679.425 10 0 60256 72900.00000 0 -21741844.922 -3798348.681 -12744913.715 10 0 60256 73800.00000 0 -20005426.258 -3909421.078 -15296951.216 10 0 60256 74700.00000 0 -17991837.682 -4207537.487 -17551062.069 10 0 60256 75600.00000 0 -15758101.486 -4720847.803 -19463327.327 10 0 60256 76500.00000 0 -13367572.123 -5466323.373 -20996501.725 10 0 60256 77400.00000 0 -10887435.587 -6448832.343 -22120743.805 10 0 60256 78300.00000 0 -8386063.004 -7660738.378 -22814198.953 10 0 60256 79200.00000 0 -5930329.460 -9082040.564 -23063424.038 10 0 60256 80100.00000 0 -3583010.402 -10681049.182 -22863645.604 10 0 60256 81000.00000 0 -1400364.281 -12415569.302 -22218847.021 10 0 60256 81900.00000 0 569998.079 -14234542.595 -21141683.379 10 0 60256 82800.00000 0 2290869.197 -16080078.363 -19653226.325 10 0 60256 83700.00000 0 3736753.672 -17889788.445 -17782544.400 10 0 60256 84600.00000 0 4894676.887 -19599327.807 -15566127.592 10 0 60256 85500.00000 0 5764461.747 -21145034.085 -13047167.863 99